Location: Unspecified
(50.7693°N, 0.0000°E)
Time: 22:00:07
(UTC+00:00)

Transit 2A - Pass Details

Date: 28 June 2019
Orbit: 594 x 964 km, 66.7° (Epoch: 20 July)

Event Time Altitude Azimuth Distance (km) Brightness Sun altitude
Rises 09:10:14 0° 310° (NW) 3,384 8.9 46.8°
Reaches altitude 10° 09:14:21 10° 282° (WNW) 2,348 8.2 47.4°
Maximum altitude 09:16:22 12° 259° (W) 2,148 8.1 47.7°
Drops below altitude 10° 09:18:18 10° 237° (WSW) 2,246 8.3 48.0°
Sets 09:22:02 0° 207° (SSW) 3,068 9.1 48.5°
